Location: Del Amo
(33.8464°N, 118.2104°W)
Time: 18:35:18
(UTC+00:00)

Vanguard 3 - Pass Details

Date: 22 September 2024
Orbit: 507 x 3224 km, 33.4° (Epoch: 05 October)

Event Time Altitude Azimuth Distance (km) Brightness Sun altitude
Rises 18:09:42 0° 286° (WNW) 7,153 11.6 49.3°
Reaches altitude 10° 18:14:38 10° 283° (WNW) 6,154 11.4 49.9°
Maximum altitude 18:33:18 57° 212° (SSW) 3,091 11.2 52.1°
Drops below altitude 10° 18:46:17 10° 137° (SE) 4,423 11.7 53.3°
Sets 18:49:13 0° 133° (SE) 5,107 11.7 53.6°
